Location: Melizzano
(41.1500°N, 14.5000°E)
Time: 21:47:57
(UTC+00:00)

SJ 16-02 - Pass Details

Date: 11 May 2021
Orbit: 606 x 616 km, 75.0° (Epoch: 24 June)

Event Time Altitude Azimuth Distance (km) Brightness Sun altitude
Exits shadow 21:19:56 18° 253° (WSW) 1,541 3.4 -26.5°
Maximum altitude 21:22:13 26° 296° (WNW) 1,208 3.3 -26.7°
Drops below altitude 10° 21:25:59 10° 354° (N) 1,986 4.8 -27.0°
Sets 21:28:32 0° 7° (N) 2,895 5.7 -27.2°
